Weather History for YPPD - September, 2013

Change the Weather History Date:

Thursday, September 5, 2013

  Actual Average Record
Temperature  
Mean Temperature 82 °F -  
Max Temperature 98 °F 91 °F 98 °F (2013)
Min Temperature 66 °F 61 °F 55 °F (1999)
Cooling Degree Days 17    
Growing Degree Days 32 (Base 50)    
Moisture  
Dew Point 62 °F    
Average Humidity 64    
Maximum Humidity 100    
Minimum Humidity 7    
Precipitation  
Precipitation 0.00 in 0.00 in - ()
Sea Level Pressure  
Sea Level Pressure 29.94 in    
Wind  
Wind Speed 9 mph ()    
Max Wind Speed 20 mph    
Max Gust Speed -    
Visibility 7.7 miles    
Events      
Averages and records for this station are not official NWS values.
T = Trace of Precipitation, MM = Missing Value Source: Averaged Metar Reports

Daily Weather History Graph

Daily Weather History Graph

Search for Another Location

Airport or City:

Trip Planner

Search our weather history database for the weather conditions in past years. The results will help you decide how hot, cold, wet, or windy it might be!

Date:

Astronomy

Sep. 05, 2013 Rise Set
Actual Time 6:10 AM AWST 5:57 PM AWST
Civil Twilight 5:48 AM AWST 6:19 PM AWST
Nautical Twilight 5:23 AM AWST 6:45 PM AWST
Astronomical Twilight 4:57 AM AWST 7:11 PM AWST
Moon 5:40 AM AWST (9/5) 5:49 PM AWST (9/5)
Length of Visible Light 12h 31m
Length of Day
11h 46m
Waning Crescent, 0% of the Moon is Illuminated
Sep 5
Waning Crescent
Sep 5
New
Sep 13
First Quarter
Sep 19
Full
Sep 27
Last Quarter

Hourly Weather History & Observations

Time (AWST) Temp. Heat Index Dew Point Humidity Pressure Visibility Wind Dir Wind Speed Gust Speed Precip Events Conditions
12:00 AM 69 °F - 66 °F 86% 29.96 in - SSE 6.9 mph - -  
12:00 AM 68.0 °F - 66.2 °F 94% 29.95 in 6.2 mi SSE 6.9 mph - N/A   Unknown
12:30 AM 68.0 °F - 66.2 °F 94% 29.95 in 6.2 mi SSE 5.8 mph - N/A   Unknown
1:00 AM 68.0 °F - 64.4 °F 88% 29.92 in 6.2 mi SSE 6.9 mph - N/A   Unknown
1:30 AM 68.0 °F - 64.4 °F 88% 29.92 in 6.2 mi SSE 5.8 mph - N/A   Unknown
2:00 AM 67 °F - 64 °F 85% 29.94 in - SSE 8.1 mph - -  
2:00 AM 68.0 °F - 64.4 °F 88% 29.92 in 6.2 mi SSE 8.1 mph - N/A   Unknown
2:30 AM 68.0 °F - 62.6 °F 83% 29.92 in 6.2 mi South 6.9 mph - N/A   Unknown
3:00 AM 69 °F - 63 °F 76% 29.93 in - South 6.9 mph - -  
3:00 AM 68.0 °F - 62.6 °F 83% 29.92 in 6.2 mi South 6.9 mph - N/A   Unknown
3:30 AM 68.0 °F - 62.6 °F 83% 29.92 in 6.2 mi South 8.1 mph - N/A   Unknown
4:00 AM 68.0 °F - 62.6 °F 83% 29.92 in 6.2 mi South 6.9 mph - N/A   Unknown
4:30 AM 68.0 °F - 60.8 °F 78% 29.89 in 6.2 mi South 8.1 mph - N/A   Unknown
5:00 AM 69 °F - 60 °F 64% 29.92 in - South 8.1 mph - -  
5:00 AM 69.8 °F - 59.0 °F 68% 29.92 in 6.2 mi South 8.1 mph - N/A   Unknown
5:30 AM 69.8 °F - 59.0 °F 68% 29.92 in 6.2 mi South 9.2 mph - N/A   Unknown
6:00 AM 67 °F - 60 °F 72% 29.94 in 19 mi SSE 8.1 mph - -   Partly Cloudy
6:00 AM 66.2 °F - 60.8 °F 83% 29.92 in - SSE 8.1 mph - N/A   Clear
6:30 AM 68.0 °F - 59.0 °F 73% 29.95 in - SSE 8.1 mph - N/A   Clear
7:00 AM 71.6 °F - 59.0 °F 64% 29.95 in - SSE 6.9 mph - N/A   Clear
7:30 AM 75.2 °F - 57.2 °F 53% 29.95 in - South 6.9 mph - N/A   Clear
8:00 AM 79 °F - 56 °F 35% 29.97 in - SSE 8.1 mph - -  
8:00 AM 78.8 °F - 57.2 °F 47% 29.95 in - SSE 8.1 mph - N/A   Clear
8:30 AM 84.2 °F - 48.2 °F 29% 29.98 in - ESE 12.7 mph - N/A   Clear
9:00 AM 88 °F - 49 °F 17% 29.98 in 19 mi ESE 13.8 mph - -   Partly Cloudy
9:00 AM 87.8 °F - 50.0 °F 27% 29.98 in - ESE 13.8 mph - N/A   Clear
9:30 AM 89.6 °F - 48.2 °F 24% 29.98 in - ESE 12.7 mph - N/A   Clear
10:00 AM 91.4 °F - 48.2 °F 23% 29.95 in - East 15.0 mph - N/A   Clear
10:30 AM 93.2 °F - 46.4 °F 20% 29.95 in - East 13.8 mph - N/A   Clear
11:00 AM 95 °F - 46 °F 11% 29.96 in - East 11.5 mph - -  
11:00 AM 95.0 °F - 46.4 °F 19% 29.95 in - East 11.5 mph - N/A   Clear
11:30 AM 96.8 °F - 44.6 °F 17% 29.92 in - East 12.7 mph - N/A   Clear
12:00 PM 98 °F - 40 °F 7% 29.93 in 19 mi East 13.8 mph - -   Partly Cloudy
12:00 PM 98.6 °F - 41.0 °F 14% 29.92 in - East 13.8 mph - N/A   Clear
12:30 PM 95.0 °F - 51.8 °F 23% 29.89 in - NNE 13.8 mph - N/A   Clear
1:00 PM 89.6 °F 88.9 °F 59.0 °F 36% 29.89 in - North 17.3 mph - N/A   Clear
1:30 PM 87.8 °F 86.5 °F 57.2 °F 35% 29.89 in - North 18.4 mph - N/A   Clear
2:00 PM 86 °F - 60 °F 31% 29.90 in - North 18.4 mph - -  
2:00 PM 86.0 °F 86.1 °F 60.8 °F 43% 29.89 in - North 18.4 mph - N/A   Clear
2:30 PM 86.0 °F 84.9 °F 57.2 °F 37% 29.89 in - NNE 19.6 mph - N/A   Clear
3:00 PM 84 °F - 61 °F 35% 29.89 in 19 mi NNE 17.3 mph - -   Partly Cloudy
3:00 PM 84.2 °F 84.4 °F 60.8 °F 45% 29.89 in - NNE 17.3 mph - N/A   Clear
3:30 PM 84.2 °F 85.6 °F 64.4 °F 51% 29.89 in 6.2 mi North 15.0 mph - N/A   Unknown
4:00 PM 82.4 °F 83.9 °F 64.4 °F 54% 29.89 in 6.2 mi North 15.0 mph - N/A   Unknown
4:30 PM 80.6 °F 83.2 °F 68.0 °F 65% 29.89 in 6.2 mi North 12.7 mph - N/A   Unknown
5:00 PM 80 °F - 69 °F 61% 29.91 in - North 12.7 mph - -  
5:00 PM 78.8 °F - 68.0 °F 69% 29.89 in 6.2 mi North 12.7 mph - N/A   Unknown
5:30 PM 78.8 °F - 69.8 °F 74% 29.92 in 6.2 mi North 10.4 mph - N/A   Unknown
6:00 PM 76 °F - 71 °F 81% 29.94 in - North 9.2 mph - -  
6:00 PM 77.0 °F - 71.6 °F 83% 29.92 in 6.2 mi North 9.2 mph - N/A   Unknown
6:30 PM 77.0 °F - 71.6 °F 83% 29.95 in 6.2 mi North 9.2 mph - N/A   Unknown
7:00 PM 75.2 °F - 73.4 °F 94% 29.95 in 6.2 mi North 8.1 mph - N/A   Unknown
7:30 PM 75.2 °F - 73.4 °F 94% 29.98 in 6.2 mi NNE 8.1 mph - N/A   Unknown
8:00 PM 75 °F - 73 °F 92% 29.99 in - NNE 6.9 mph - -  
8:00 PM 75.2 °F - 73.4 °F 94% 29.98 in 6.2 mi NNE 6.9 mph - N/A   Unknown
8:30 PM 75.2 °F - 73.4 °F 94% 29.98 in 6.2 mi NNE 8.1 mph - N/A   Unknown
9:00 PM 75 °F - 73 °F 92% 30.01 in - NNE 9.2 mph - -  
9:00 PM 75.2 °F - 73.4 °F 94% 30.01 in 6.2 mi NNE 9.2 mph - N/A   Unknown
9:30 PM 75.2 °F - 73.4 °F 94% 30.01 in 6.2 mi NNE 5.8 mph - N/A   Unknown
10:00 PM 75.2 °F - 73.4 °F 94% 30.01 in 6.2 mi North 5.8 mph - N/A   Unknown
10:30 PM 73.4 °F - 71.6 °F 94% 30.01 in 6.2 mi North 6.9 mph - N/A   Unknown
11:00 PM 72 °F - 71 °F 97% 30.01 in - NNW 5.8 mph - -  
11:00 PM 71.6 °F - 71.6 °F 100% 30.01 in 6.2 mi NNW 5.8 mph - N/A   Unknown
11:30 PM 71.6 °F - 69.8 °F 94% 30.01 in 5.6 mi WNW 4.6 mph - N/A   Unknown